Weather in Shenyang

China     41˚46′27″N   123˚23′20″E
temp.,
°C
wind,
m/s
gust,
m/s
humid.,
%
clouds,
%
prec.,
mm/h
press.,
hPa
HPBL,
m
1 december, tue
tue123:00−4˚wnw11510 0.0 1041209
02:00−5˚nw12571 0.0 1040198
05:00−6˚nnw12572 0.0 1040156
08:00−6˚nnw12521 0.0 1040193
11:00−3˚wnw11382 0.0 1040562
14:00−2˚w12331 0.0 1037753
17:00−3˚w123726 0.0 1037408
20:00−4˚w113813 0.0 1037214
2 december, wed
wed223:00−4˚wsw12400 0.0 1037178
02:00−5˚nw12439 0.0 1036181
05:00−6˚nnw115196 0.0 1035171
08:00−6˚wnw125498 0.0 1036261
11:00−4˚w2240100 0.0 1035478
14:00−3˚wnw2234100 0.0 1033725
17:00−4˚w2338100 0.0 1033570
20:00−5˚nw2440100 0.0 1034452
3 december, thu
thu323:00−5˚wnw244929 0.0 1034385
02:00−7˚wnw355415 0.0 1034402
05:00−8˚wnw25560 0.0 1034372
08:00−8˚wnw23560 0.0 1035377
11:00−6˚w23440 0.0 1035637
14:00−4˚wnw23390 0.0 1033846
17:00−5˚wnw23410 0.0 1034579
20:00−5˚w13460 0.0 1035406
4 december, fri
fri423:00−6˚wsw12520 0.0 1034209
02:00−7˚sw23570 0.0 1033161
05:00−7˚sw23600 0.0 1032162
08:00−7˚ssw35590 0.0 1033273
11:00−5˚wsw36400 0.0 1031799
14:00−3˚wsw35340 0.0 1029940
17:00−4˚wsw25360 0.0 1029499
20:00−4˚sw24390 0.0 1029192
5 december, sat
sat523:00−5˚ssw36380 0.0 1029197
02:00−5˚ssw35440 0.0 1029175
05:00−6˚ssw24530 0.0 1029138
08:00−5˚sw23540 0.0 1031116
11:00−2˚sw24420 0.0 1030519
14:00sw24360 0.0 1029825
17:00−2˚ssw12450 0.0 102921
20:00−2˚s12460 0.0 102921